SL-8 DEB *

Satellite information

Favourite Embed

Satellite Type and Status

DEBRISIN ORBIT

Key statistics

Satellite SL-8 DEB * at a glance.

Uptime

15852

Days in orbit

Revolutions

≈ 14.6

Per day

Orbit

LEO

Low Earth Orbit

Inclination

74.0

Latest

Satellite identification and parameters

Extended collection of information and parameters for SL-8 DEB *.

Object identification

Identified? True

Debris? True

Object name: SL-8 DEB *

International designator: 1982-051C

Object number (NORAD): 14398

Object ID (CCSDS): 14398

Country: COMMONWEALTH OF INDEPENDENT STATES (CIS)

Current information (Y/N): Y

RCS size: SMALL

Orbital parameters

Period: 98.58 minutes

Inclination: 74.0437 deg

SMA: 7068.932 km

Apoapsis: 692.662 km

Periapsis: 688.932 km

RAAN: 172.7867 deg

Eccentricy: 0.00026378

Argument of periapsis: 347.7494 deg

Mean anomaly: 79.8341 deg

Mean motion: 14.6073707 rev/day

Mean motion (dot): 0.00002724 rev/day2

B* drag term: 0.00056429114 1/REarth

Two-line elements (TLE)

Creation date: Oct. 25, 2025, 3:11 a.m.

Reference frame: TEME

Reference center: EARTH

Epoch: Oct. 24, 2025, 6:34 p.m. UTC

TLE line 0: 0 SL-8 DEB *

TLE line 1: 1 14398U 82051C 25297.77385215 .00002724 00000-0 56429-3 0 9998

TLE line 2: 2 14398 74.0437 172.7867 0002638 347.7494 79.8341 14.60737070319085

Live tracking on map

Real-time ground track for satellite SL-8 DEB *.

In-orbit conjunctions

A list of the most updated potential collisions computed for object SL-8 DEB *.

Target Orbit TCA Probability of collision Miss distance Type
COSMOS 2251 DEB LEO 2024-11-12 16:43:58 0.0001543264 306.0 (m) DEBRIS
FENGYUN 1C DEB SSO 2024-09-25 14:58:52 0.006285188 108.0 (m) DEBRIS

Associated space launch

Military communications satellite

SL-8 DEB * was lifted into orbit during the mission ‘Kosmos-3M | Strela-2M 28’, on board a Kosmos-3M space rocket.

The launch took place on June 1, 1982, 4:37 a.m. from 132/1 (132L).

For more information about the launch, click the button.

Launch to space Kosmos-3M | Strela-2M 28
Kosmos-3M | Strela-2M 28

Agency: N/A

Status: Launch Successful

Launch date: June 1, 1982, 4:37 a.m. UTC

Rocket: Kosmos-3M

Launch pad: 132/1 (132L)

Location: Plesetsk Cosmodrome, Russian Federation

...

Latest news about this satellite

There are no fresh news available about this satellite. Check back as we update our databases every day.


Newsletter sign-up

Weekly statistics, charts and insights to help you stay on top of the space industry.